Terminal Aerodrome Forecast
Issued by NWS

Home | Current Version | Previous Version | Text Only | Print | Product List | Glossary On
Versions: 1 2 3 4 5 6 7 8 9 10 11 12 13 14 15 16 17 18 19 20 21 22 23 24 25 26 27 28 29 30 31 32 33 34 35
000
FTAK31 PAFA 060534
TAFATA
TAF
PATA 060534Z 0606/0706 00000KT 3/4SM FU VV015
     FM061500 VRB04KT 1/2SM FU BKN015 BKN100
     FM070000 11005KT 1SM FU SCT015 SCT050 BKN100=

USA.gov is the U.S. government's official web portal to all federal, state and local government web resources and services.